Погода в Старомочалеях

Россия / Нижегородская область     55°25′22″N   45°54′32″E
темп.,
°C
ветер,
м/с
пор.,
м/с
влажн.,
%
обл.,
%
осадки,
мм/ч
давл.,
гПа
погр.,
м
17 мая, пн
пн1700:00+16зюз228492 0.0 101514
03:00+15с0090100 0.0 101611
06:00+18св1285100 0.0 101689
09:00+23в226688 0.0 1016438
12:00+27ююз12535 0.0 1016934
15:00+28з12485 0.0 10161073
18:00+27ссв226510 0.0 101543
21:00+17ю498789 2.6 1016171
18 мая, вт
вт1800:00+16юв1286100 0.4 101628
03:00+16вюв3586100 0.4 101667
06:00+17в358391 0.0 1017143
09:00+23вюв566298 0.0 1017478
12:00+27юв464715 0.0 10161047
15:00+29юв45435 0.0 10151982
18:00+24в511625 0.0 1015346
21:00+20вюв413785 0.0 1015259
19 мая, ср
ср1900:00+18вюв412775 0.0 1015275
03:00+16в411825 0.0 1015248
06:00+18вюв413765 0.0 1015391
09:00+23вюв610614 0.0 1015643
12:00+26вюв79510 0.0 10151152
15:00+26вюв710520 0.0 10141432
18:00+23вюв611600 0.0 1014414
21:00+19в514690 0.0 1014298
20 мая, чт
чт2000:00+19вюв615660 0.0 1014417
03:00+18юв615710 0.0 1015430
06:00+18юв513770 0.0 1014474
09:00+22юв711610 0.0 1014897
12:00+25юв812540 0.0 10131969
15:00+25юв7135159 0.0 10122542
18:00+15зюз51189100 2.0 1014389
21:00+14ююв499355 3.6 1014442
21 мая, пт
пт2100:00+13юв399718 0.0 1015243
03:00+13юв499794 0.0 1015240
06:00+15ю511890 0.0 1015489
09:00+18ю687144 0.0 10161014
12:00+20юз71061100 0.1 10161711
15:00+21юз7105940 0.1 10171667
18:00+19юз61071100 0.3 1017671
21:00+15ююз3986100 0.3 1019232